Weather History for Greenwood, SC

Change the Weather History Date:

Wednesday, December 12, 2012

  Actual Average (KAND) Record (KAND)
Temperature  
Mean Temperature 44 °F -  
Max Temperature 48 °F 55 °F 77 °F (2007)
Min Temperature 41 °F 36 °F 7 °F (1962)
Degree Days  
Heating Degree Days 20    
Moisture  
Dew Point 38 °F    
Average Humidity 78    
Maximum Humidity 93    
Minimum Humidity 60    
Precipitation  
Precipitation 0.21 in - - ()
Sea Level Pressure  
Sea Level Pressure 30.23 in    
Wind  
Wind Speed 7 mph (NE)    
Max Wind Speed 10 mph    
Max Gust Speed 21 mph    
Visibility 9 miles    
Events Rain    
Averages and records for this station are not official NWS values.
T = Trace of Precipitation, MM = Missing Value Source: NWS Daily Summary

Daily Weather History Graph

Daily Weather History Graph

Search for Another Location

Airport:

Trip Planner

Search our weather history database for the weather conditions in past years. The results will help you decide how hot, cold, wet, or windy it might be!

Date:

Astronomy

Dec. 12, 2012 Rise Set
Actual Time 7:25 AM EST 5:19 PM EST
Civil Twilight 6:57 AM EST 5:47 PM EST
Nautical Twilight 6:26 AM EST 6:18 PM EST
Astronomical Twilight 5:55 AM EST 6:49 PM EST
Moon 6:29 AM EST (12/12) 4:54 PM EST (12/12)
Length of Visible Light 10h 49m
Length of Day
9h 54m
Waning Crescent, 1% of the Moon is Illuminated
Dec 12
Waning Crescent
Dec 13
New
Dec 20
First Quarter
Dec 28
Full
Jan 4
Last Quarter

Hourly Weather History & Observations

Time (EST) Temp. Windchill Dew Point Humidity Pressure Visibility Wind Dir Wind Speed Gust Speed Precip Events Conditions
12:56 AM 45.0 °F 41.8 °F 37.0 °F 74% 30.14 in 10.0 mi North 5.8 mph - N/A   Clear
1:56 AM 45.0 °F 40.6 °F 37.0 °F 74% 30.15 in 10.0 mi North 8.1 mph - N/A   Clear
2:56 AM 45.0 °F 41.8 °F 35.1 °F 68% 30.15 in 10.0 mi NNE 5.8 mph - N/A   Clear
3:56 AM 45.0 °F 41.2 °F 33.1 °F 63% 30.18 in 10.0 mi NE 6.9 mph - N/A   Clear
4:56 AM 45.0 °F 41.2 °F 32.0 °F 60% 30.18 in 10.0 mi NNE 6.9 mph - N/A   Partly Cloudy
5:56 AM 44.1 °F 40.1 °F 32.0 °F 63% 30.18 in 10.0 mi NE 6.9 mph - N/A   Overcast
6:56 AM 44.1 °F 39.0 °F 32.0 °F 63% 30.19 in 10.0 mi NNE 9.2 mph - N/A   Overcast
7:56 AM 44.1 °F 39.5 °F 32.0 °F 63% 30.20 in 10.0 mi NE 8.1 mph - N/A   Clear
8:56 AM 45.0 °F 39.7 °F 32.0 °F 60% 30.23 in 10.0 mi NNE 10.4 mph - N/A   Clear
9:56 AM 46.9 °F - 34.0 °F 61% 30.24 in 10.0 mi NE 9.2 mph 17.3 mph N/A   Clear
10:46 AM 48.2 °F - 35.6 °F 62% 30.25 in 10.0 mi Variable 6.9 mph 16.1 mph N/A   Mostly Cloudy
10:56 AM 46.9 °F - 35.1 °F 63% 30.26 in 10.0 mi Variable 4.6 mph - N/A   Overcast
11:56 AM 44.1 °F 42.5 °F 39.0 °F 82% 30.27 in 6.0 mi Variable 3.5 mph - 0.02 in Rain Light Rain
12:37 PM 44.6 °F 40.7 °F 41.0 °F 87% 30.24 in 7.0 mi NNE 6.9 mph - 0.06 in Rain Light Rain
12:56 PM 44.1 °F 42.5 °F 42.1 °F 93% 30.22 in 6.0 mi NE 3.5 mph - 0.07 in Rain Light Rain
1:11 PM 44.6 °F 42.2 °F 42.8 °F 93% 30.24 in 7.0 mi NNE 4.6 mph - 0.02 in Rain Light Rain
1:18 PM 44.6 °F 40.7 °F 42.8 °F 93% 30.23 in 10.0 mi North 6.9 mph - 0.02 in Rain Light Rain
1:56 PM 45.0 °F 41.2 °F 42.1 °F 90% 30.21 in 10.0 mi NE 6.9 mph - 0.02 in Rain Light Rain
2:56 PM 45.0 °F 41.8 °F 41.0 °F 86% 30.23 in 10.0 mi NNE 5.8 mph - 0.00 in   Overcast
3:56 PM 44.1 °F 40.1 °F 39.9 °F 85% 30.24 in 10.0 mi NNE 6.9 mph - N/A   Mostly Cloudy
4:03 PM 44.6 °F 40.7 °F 39.2 °F 81% 30.23 in 10.0 mi NE 6.9 mph - N/A   Mostly Cloudy
4:56 PM 44.1 °F 39.0 °F 39.9 °F 85% 30.23 in 10.0 mi NE 9.2 mph - 0.00 in Rain Light Rain
5:56 PM 43.0 °F 38.8 °F 39.9 °F 89% 30.25 in 10.0 mi NE 6.9 mph - 0.01 in   Overcast
6:56 PM 43.0 °F 38.8 °F 39.9 °F 89% 30.25 in 10.0 mi NE 6.9 mph - N/A   Overcast
7:56 PM 43.0 °F 37.7 °F 39.9 °F 89% 30.26 in 10.0 mi NE 9.2 mph - N/A   Overcast
8:56 PM 44.1 °F 39.0 °F 39.9 °F 85% 30.27 in 10.0 mi NNE 9.2 mph - N/A   Overcast
9:56 PM 44.1 °F 41.5 °F 37.0 °F 76% 30.32 in 10.0 mi Variable 4.6 mph - N/A   Overcast
10:44 PM 42.8 °F 37.0 °F 37.4 °F 81% 30.25 in 5.0 mi ENE 10.4 mph 20.7 mph 0.05 in Rain Heavy Rain
10:56 PM 41.0 °F 34.7 °F 37.9 °F 89% 30.27 in 4.0 mi NE 10.4 mph 18.4 mph 0.08 in Rain Rain
11:56 PM 42.1 °F 38.4 °F 39.0 °F 89% 30.30 in 10.0 mi NE 5.8 mph - 0.01 in   Overcast